Miscellaneous Local Product
Issued by NWS Hastings, NE

Home | Current Version | Previous Version | Text Only | Print | Product List | Glossary Off
Versions: 1 2 3 4 5 6 7 8 9 10 11 12 13 14 15 16 17 18 19 20 21 22 23 24 25 26 27 28 29 30 31 32 33 34 35 36 37 38 39 40 41 42 43 44 45 46 47 48 49 50

000
AXUS43 KGID 200102
MISGRI

GID CWA HOURLY WEATHER ROUNDUP
NATIONAL WEATHER SERVICE HASTINGS NE
800 PM CDT SUN OCT 19 2014

NOTE: "FAIR" INDICATES FEW OR NO CLOUDS BELOW 12,000 FEET WITH NO
SIGNIFICANT WEATHER AND/OR OBSTRUCTIONS TO VISIBILITY.

...SOUTH CENTRAL NEBRASKA...

CITY           SKY/WX    TMP DP  RH WIND       PRES   REMARKS
GRAND ISLAND   CLEAR     60  49  66 SW3       29.99R
HASTINGS       CLEAR     59  45  59 CALM      29.99R
KEARNEY        CLEAR     61  46  59 CALM      30.01R
ORD            CLEAR     50  41  71 CALM      29.98R
YORK           CLEAR     59  46  63 SW6       29.98S
AURORA         CLEAR     58  45  62 SW3       29.98S
LEXINGTON      CLEAR     59  48  66 CALM      30.01R
HOLDREGE       CLEAR     57  46  68 CALM      30.00S
HEBRON         CLEAR     61  47  60 SW5       29.99S

...NEBRASKA PANHANDLE...

CITY           SKY/WX    TMP DP  RH WIND       PRES   REMARKS
CHADRON        CLEAR     55  42  61 SE3       30.06R
ALLIANCE       CLEAR     54  37  52 NE9       30.07R
SCOTTSBLUFF    CLEAR     58  39  49 E3        30.07R
SIDNEY         CLEAR     54  36  50 E3        30.10R

...WESTERN AND NORTH CENTRAL NEBRASKA...

CITY           SKY/WX    TMP DP  RH WIND       PRES   REMARKS
VALENTINE      CLEAR     59  37  44 NW6       30.02R
AINSWORTH      CLEAR     60  38  43 NW3       30.02R
ONEILL         CLEAR     62  43  49 N3        29.98S
BROKEN BOW     CLEAR     52  40  63 NW3       30.00R
IMPERIAL       CLEAR     60  38  43 E5        30.04R
NORTH PLATTE   CLEAR     56  38  50 CALM      30.02R
MCCOOK         CLEAR     61  46  57 E3        30.02R

...EASTERN NEBRASKA...

CITY           SKY/WX    TMP DP  RH WIND       PRES   REMARKS
NORFOLK        CLEAR     55  46  71 SW7       29.94R
SO SIOUX CITY  CLEAR     55  45  68 SW3       29.92R
TEKAMAH        CLEAR     57  46  66 SW5       29.93R
COLUMBUS       CLEAR     54  45  71 CALM      29.97R
ALBION         CLEAR     56  42  60 CALM      29.97R
OMAHA EPPLEY   CLEAR     59  47  64 S7        29.94R
OFFUTT AFB     CLEAR     55  52  91 S3        29.94S
MILLARD        CLEAR     63  49  60 CALM      29.94R
LINCOLN        CLEAR     59  48  67 SW5       29.97R
NEBRASKA CITY  CLEAR     61  43  53 SW8       29.97S
BEATRICE       CLEAR     57  48  71 S3        29.99R
FALLS CITY     CLEAR     60  48  64 S6        29.98R

...NORTHERN KANSAS...

CITY           SKY/WX    TMP DP  RH WIND       PRES   REMARKS
GOODLAND       CLEAR     57  42  57 E6        30.06R
HILL CITY      CLEAR     57  46  66 N6        30.00R
NORTON         CLEAR     57  43  58 CALM      30.00R
PHILLIPSBURG   CLEAR     66  48  52 NE3       29.99R HAZE
SMITH CENTER   CLEAR     59  46  63 E6        30.00R
BELOIT         CLEAR     61  50  67 SE5       29.98S
HAYS           CLEAR     61  48  63 E8        29.99R
RUSSELL        CLEAR     59  51  75 SE10      29.98R
CONCORDIA      CLEAR     60  51  72 S9        29.99R
SALINA         CLEAR     59  51  75 CALM      30.00S
TOPEKA         PTCLDY    64  49  57 S5        30.00S



USA.gov is the U.S. government's official web portal to all federal, state and local government web resources and services.